GW4022 Weather Reports


Display with metric or nautical units.
time (UTC)temp
F
wind
direction
speed
MPH
gust
MPH
rain 1hr
in
rain 24hr
in
rain mn
in
humidity
%
barometer
mb
20260508033058 0 0.0 0.0 0.00 0.00 0.00 1011.3
20260508031558 0 0.0 0.0 0.00 0.00 0.00 1011.2
20260508030105 0 0.0 0.0 0.00 0.00 0.00 1011.4
20260508024556 0 0.0 0.0 0.00 0.00 0.00 1011.3
20260508023055 0 0.0 0.0 0.00 0.00 0.00 1011.5
20260508021558 0 0.0 0.0 0.00 0.00 0.00 1011.6
20260508020100 0 0.0 0.0 0.00 0.00 0.00 1011.7
20260508014558 0 0.0 0.0 0.00 0.00 0.00 1011.8
20260508013055 0 0.0 0.0 0.00 0.00 0.00 1012.0
20260508011603 0 0.0 0.0 0.00 0.00 0.00 1012.1
20260508004602 0 0.0 0.0 0.00 0.00 0.00 1012.2
20260508003109 0 0.0 0.0 0.00 0.00 0.00 1012.4
20260508001600 0 0.0 0.0 0.00 0.00 0.00 1012.5
20260507234611 0 0.0 0.0 0.00 0.00 0.00 1012.8
20260507233059 0 0.0 0.0 0.00 0.00 0.00 1013.0
20260507231610 0 0.0 0.0 0.00 0.00 0.00 1012.9
20260507230100 0 0.0 0.0 0.00 0.00 0.00 1013.2
20260507224615 0 0.0 0.0 0.00 0.00 0.00 1013.5
20260507223100 0 0.0 0.0 0.00 0.00 0.00 1013.6
20260507221557 0 0.0 0.0 0.00 0.00 0.00 1013.5
20260507220057 0 0.0 0.0 0.00 0.00 0.00 1013.4
20260507214603 0 0.0 0.0 0.00 0.00 0.00 1013.3
20260507213056 0 0.0 0.0 0.00 0.00 0.00 1013.3
20260507211623 0 0.0 0.0 0.00 0.00 0.00 1013.3
20260507204605 0 0.0 0.0 0.00 0.00 0.00 1013.4
20260507203110 62 0.0 0.0 0.00 0.00 0.00 71 1013.1
20260507201611 62 0.0 0.0 0.00 0.00 0.00 69 1013.2
20260507200103 63 0.0 0.0 0.00 0.00 0.00 68 1013.2
20260507194556 63 0.0 0.0 0.00 0.00 0.00 66 1013.4
20260507193055 63 0.0 0.0 0.00 0.00 0.00 66 1013.2
20260507191557 63 0.0 0.0 0.00 0.00 0.00 64 1013.2
20260507190055 63 0.0 0.0 0.00 0.00 0.00 64 1012.9
20260507184556 64 0.0 0.0 0.00 0.00 0.00 64 1013.0
20260507183053 65 0.0 0.0 0.00 0.00 0.00 63 1013.0
20260507181554 65 0.0 0.0 0.00 0.00 0.00 63 1013.2
20260507180055 65 0.0 0.0 0.00 0.00 0.00 62 1013.1
20260507174557 66 0.0 0.0 0.00 0.00 0.00 62 1013.0
20260507173102 66 0.0 0.0 0.00 0.00 0.00 61 1012.7
20260507171602 67 0.0 0.0 0.00 0.00 0.00 59 1012.8
20260507170059 68 0.0 0.0 0.00 0.00 0.00 59 1012.7
20260507164557 69 0.0 0.0 0.00 0.00 0.00 58 1012.8
20260507163100 69 0.0 0.0 0.00 0.00 0.00 55 1012.7
20260507161601 69 0.0 0.0 0.00 0.00 0.00 54 1012.7
20260507160108 69 0.0 0.0 0.00 0.00 0.00 54 1012.7
20260507154557 69 0.0 0.0 0.00 0.00 0.00 56 1012.7
20260507153100 69 0.0 0.0 0.00 0.00 0.00 53 1012.8
20260507151556 69 0.0 0.0 0.00 0.00 0.00 55 1012.9
20260507150101 69 0.0 0.0 0.00 0.00 0.00 54 1012.9
20260507144556 69 0.0 0.0 0.00 0.00 0.00 53 1013.0
20260507143055 69 0.0 0.0 0.00 0.00 0.00 56 1013.2
20260507141558 68 0.0 0.0 0.00 0.00 0.00 58 1013.2
20260507140110 68 0.0 0.0 0.00 0.00 0.00 59 1013.4
20260507134557 68 0.0 0.0 0.00 0.00 0.00 60 1013.6
20260507133057 68 0.0 0.0 0.00 0.00 0.00 60 1013.7
20260507131557 68 0.0 0.0 0.00 0.00 0.00 61 1013.9
20260507130100 68 0.0 0.0 0.00 0.00 0.00 61 1014.0
20260507124559 68 0.0 0.0 0.00 0.00 0.00 62 1014.1
20260507123054 68 0.0 0.0 0.00 0.00 0.00 61 1014.1
20260507121556 69 0.0 0.0 0.00 0.00 0.00 62 1013.9
20260507120054 69 0.0 0.0 0.00 0.00 0.00 57 1014.0
20260507114553 69 0.0 0.0 0.00 0.00 0.00 58 1014.0
20260507113055 69 0.0 0.0 0.00 0.00 0.00 64 1014.2
20260507111554 68 0.0 0.0 0.00 0.00 0.00 65 1014.4
20260507110057 69 0.0 0.0 0.00 0.00 0.00 66 1014.3
20260507104600 68 0.0 0.0 0.00 0.00 0.00 66 1014.4
20260507103059 66 0.0 0.0 0.00 0.00 0.00 76 1014.4
20260507101608 64 0.0 0.0 0.00 0.00 0.00 76 1014.8
20260507094602 67 0.0 0.0 0.00 0.00 0.00 70 1014.6
20260507093058 67 0.0 0.0 0.00 0.00 0.00 73 1014.7
20260507091606 66 0.0 0.0 0.00 0.00 0.00 78 1014.7
20260507090115 64 0.0 0.0 0.00 0.00 0.00 84 1014.6
20260507084600 61 0.0 0.0 0.00 0.00 0.00 89 1014.7
20260507083105 61 0.0 0.0 0.00 0.00 0.00 91 1014.6
20260507081559 61 0.0 0.0 0.00 0.00 0.00 93 1014.8
20260507080056 59 0.0 0.0 0.00 0.00 0.00 94 1015.0
20260507074600 58 0.0 0.0 0.00 0.00 0.00 94 1015.0
20260507073108 57 0.0 0.0 0.00 0.00 0.00 94 1014.8
20260507071559 57 0.0 0.0 0.00 0.00 0.00 94 1015.0
20260507070138 56 0.0 0.0 0.00 0.00 0.00 94 1014.8
20260507064557 56 0.0 0.0 0.00 0.00 0.00 94 1014.7
20260507063101 55 0.0 0.0 0.00 0.00 0.00 94 1014.5
20260507061556 55 0.0 0.0 0.00 0.00 0.00 94 1014.7
20260507060100 55 0.0 0.0 0.00 0.00 0.00 94 1014.6
20260507054556 55 0.0 0.0 0.00 0.00 0.00 94 1014.4
20260507053058 55 0.0 0.0 0.00 0.00 0.00 94 1014.3
20260507051556 55 0.0 0.0 0.00 0.00 0.00 94 1014.2
20260507050056 54 0.0 0.0 0.00 0.00 0.00 94 1014.1
20260507044559 0 0.0 0.0 0.00 0.00 0.00 1013.9
20260507043055 0 0.0 0.0 0.00 0.00 0.00 1013.7
20260507041556 0 0.0 0.0 0.00 0.00 0.00 1013.5
20260507040058 0 0.0 0.0 0.00 0.00 0.00 1013.5
20260507034559 0 0.0 0.0 0.00 0.00 0.00 1013.5